sat.trackr.live / text

‹ back to catalog

PETREL

NORAD 69503 · 2026-132B

PAYLOAD ACTIVE UNKNOWN

§ Identity

Operator
Country
JPN
Launch date
2026-06-12
Launch site
TANSC
Launch vehicle
Mass (kg)
RCS (m²)

External: N2YO · Heavens-Above · Gunter

§ Orbital elements

Epoch: 2026-09-20T03:06:07.320960Z

Period
96.04 min
Inclination
97.6852°
Eccentricity
0.0010599
Mean motion
14.99340021 rev/d
Perigee alt
561.6 km
Apogee alt
576.3 km
Semi-major
6,947.1 km
B*
1.4032e-4
RAAN
325.5712°
Arg perigee
319.5203°
Mean anomaly
40.5231°
Rev number
1,500

§ Raw data

PETREL1 69503U 26132B   26263.12925140  .00001657  00000+0  14032-3 0  99912 69503  97.6852 325.5712 0010599 319.5203  40.5231 14.99340021 15008

JSON: /api/v1/satellites/69503 · /tle

For live sub-satellite position, see the globe view (requires WebGL).

§ Visibility from observer

Set your observer location to see the next 7 days of passes ≥ 10°. The values pass through the URL so the page stays shareable.

No JS? Fill the form by hand. The geolocation button needs JavaScript.